QPF
0.00 0.00 0.00 0.00 0.00 0.00 0.00 0.00 0.00 0.00 0.00 0.00 0.00 0.00 0.01 0.03 0.04 0.04 0.03 0.03 0.04 0.03 0.02 0.03 0.02 0.01 0.01 0.01 0.02 0.02 0.02 0.01 0.00 0.01 0.01 0.01 0.01 0.01 0.01 0.01 0.01 0.01 0.01 0.01
0.00 0.00 0.00 0.00 0.00 0.00 0.00 0.00 0.00 0.00 0.00 0.00 0.00 0.00 0.00 0.01 0.01 0.01 0.01 0.02 0.03 0.03 0.02 0.01 0.01 0.00 0.00 0.00 0.00 0.00 0.00 0.00 0.00 0.00 0.00 0.00 0.00 0.00 0.00 0.00 0.00 0.00 0.00 0.00
0.00 0.00 0.00 0.00 0.00 0.00 0.00 0.00 0.00 0.00 0.00 0.00 0.00 0.00 0.00 0.00 0.01 0.01 0.01 0.02 0.03 0.03 0.01 0.00 0.00 0.00 0.00 0.00 0.00 0.00 0.00 0.00 0.00 0.00 0.00 0.00 0.00 0.00 0.00 0.00 0.00 0.00 0.00 0.00
0.00 0.00 0.00 0.00 0.00 0.00 0.00 0.00 0.00 0.00 0.00 0.00 0.00 0.00 0.00 0.00 0.01 0.01 0.01 0.02 0.02 0.02 0.01 0.00 0.00 0.00 0.00 0.00 0.00 0.00 0.00 0.00 0.00 0.00 0.00 0.00 0.00 0.00 0.00 0.00 0.00 0.00 0.00 0.00
0.00 0.00 0.00 0.00 0.00 0.00 0.00 0.00 0.00 0.00 0.00 0.00 0.00 0.00 0.00 0.00 0.01 0.02 0.02 0.02 0.02 0.01 0.00 0.00 0.00 0.00 0.00 0.00 0.00 0.00 0.00 0.00 0.00 0.00 0.00 0.00 0.00 0.00 0.00 0.00 0.00 0.00 0.00 0.00
0.00 0.00 0.00 0.00 0.00 0.00 0.00 0.00 0.00 0.00 0.00 0.00 0.00 0.00 0.00 0.00 0.00 0.01 0.01 0.01 0.01 0.00 0.00 0.00 0.00 0.00 0.00 0.00 0.00 0.00 0.00 0.00 0.00 0.00 0.00 0.00 0.00 0.00 0.00 0.00 0.00 0.00 0.00 0.00
0.00 0.00 0.00 0.00 0.00 0.00 0.00 0.00 0.00 0.00 0.00 0.00 0.00 0.00 0.00 0.00 0.00 0.00 0.00 0.00 0.00 0.01 0.00 0.00 0.00 0.00 0.00 0.00 0.00 0.00 0.00 0.00 0.00 0.00 0.00 0.00 0.00 0.00 0.00 0.00 0.00 0.00 0.00 0.00
0.00 0.00 0.00 0.00 0.00 0.00 0.00 0.00 0.00 0.00 0.00 0.00 0.00 0.00 0.00 0.00 0.00 0.00 0.00 0.00 0.01 0.01 0.01 0.00 0.00 0.00 0.00 0.00 0.00 0.00 0.00 0.00 0.00 0.00 0.00 0.00 0.00 0.00 0.00 0.00 0.00 0.00 0.00 0.00
0.00 0.00 0.00 0.00 0.00 0.00 0.00 0.00 0.00 0.00 0.00 0.00 0.00 0.00 0.00 0.00 0.00 0.00 0.00 0.00 0.01 0.01 0.00 0.00 0.00 0.00 0.00 0.00 0.00 0.00 0.00 0.00 0.00 0.00 0.00 0.00 0.00 0.00 0.00 0.00 0.00 0.00 0.00 0.00
0.00 0.00 0.00 0.00 0.00 0.00 0.00 0.00 0.00 0.00 0.00 0.00 0.00 0.00 0.00 0.00 0.00 0.00 0.00 0.00 0.00 0.00 0.00 0.00 0.00 0.00 0.00 0.00 0.00 0.00 0.00 0.00 0.00 0.00 0.00 0.00 0.00 0.00 0.00 0.00 0.00 0.00 0.00 0.00
0.00 0.00 0.00 0.00 0.00 0.00 0.00 0.00 0.00 0.00 0.00 0.00 0.00 0.00 0.00 0.00 0.00 0.00 0.00 0.00 0.00 0.00 0.00 0.00 0.00 0.00 0.00 0.00 0.00 0.00 0.00 0.00 0.00 0.00 0.00 0.00 0.00 0.00 0.00 0.00 0.00 0.00 0.00 0.00
0.00 0.00 0.00 0.00 0.00 0.00 0.00 0.00 0.00 0.00 0.00 0.00 0.00 0.00 0.00 0.00 0.00 0.00 0.00 0.00 0.00 0.00 0.00 0.00 0.00 0.00 0.00 0.00 0.00 0.00 0.00 0.00 0.00 0.00 0.00 0.00 0.00 0.00 0.00 0.00 0.00 0.00 0.00 0.00
0.00 0.00 0.00 0.00 0.00 0.00 0.00 0.00 0.00 0.00 0.00 0.00 0.00 0.00 0.00 0.00 0.00 0.00 0.00 0.00 0.00 0.00 0.00 0.00 0.00 0.00 0.00 0.00 0.00 0.00 0.00 0.00 0.00 0.00 0.00 0.00 0.00 0.00 0.00 0.00 0.00 0.00 0.00 0.00
0.00 0.00 0.00 0.00 0.00 0.00 0.00 0.00 0.00 0.00 0.00 0.00 0.00 0.00 0.00 0.00 0.00 0.00 0.00 0.00 0.00 0.00 0.00 0.00 0.00 0.00 0.00 0.00 0.00 0.00 0.00 0.00 0.00 0.00 0.00 0.00 0.00 0.00 0.00 0.00 0.00 0.00 0.00 0.00
0.00 0.00 0.00 0.00 0.00 0.00 0.00 0.00 0.00 0.00 0.00 0.00 0.00 0.01 0.01 0.00 0.00 0.00 0.00 0.00 0.00 0.00 0.00 0.00 0.00 0.00 0.00 0.00 0.00 0.00 0.00 0.00 0.00 0.00 0.00 0.00 0.00 0.00 0.00 0.00 0.00 0.00 0.00 0.00
0.00 0.00 0.00 0.00 0.00 0.00 0.00 0.00 0.00 0.00 0.01 0.01 0.01 0.01 0.01 0.01 0.01 0.02 0.02 0.02 0.02 0.02 0.01 0.01 0.01 0.01 0.01 0.01 0.00 0.00 0.00 0.00 0.00 0.00 0.00 0.00 0.00 0.00 0.00 0.00 0.00 0.00 0.00 0.00
0.00 0.00 0.00 0.01 0.01 0.00 0.00 0.01 0.01 0.01 0.01 0.02 0.03 0.04 0.03 0.03 0.04 0.05 0.05 0.05 0.04 0.03 0.02 0.01 0.01 0.01 0.00 0.00 0.00 0.00 0.00 0.00 0.00 0.00 0.01 0.01 0.01 0.01 0.01 0.01 0.00 0.00 0.00 0.00
0.00 0.00 0.00 0.01 0.01 0.00 0.00 0.00 0.00 0.01 0.02 0.02 0.03 0.04 0.06 0.07 0.06 0.07 0.09 0.07 0.03 0.01 0.01 0.00 0.00 0.00 0.00 0.00 0.00 0.00 0.00 0.00 0.00 0.01 0.02 0.03 0.03 0.02 0.02 0.02 0.02 0.01 0.00 0.00
0.00 0.00 0.00 0.00 0.00 0.00 0.01 0.01 0.01 0.02 0.04 0.04 0.06 0.08 0.09 0.07 0.05 0.03 0.03 0.01 0.00 0.00 0.00 0.00 0.00 0.00 0.00 0.00 0.00 0.00 0.00 0.00 0.01 0.02 0.04 0.05 0.06 0.06 0.06 0.06 0.05 0.04 0.01 0.00
0.00 0.00 0.00 0.01 0.01 0.01 0.02 0.02 0.03 0.04 0.08 0.08 0.06 0.04 0.02 0.01 0.00 0.00 0.00 0.00 0.00 0.00 0.00 0.00 0.00 0.00 0.00 0.00 0.00 0.00 0.00 0.00 0.01 0.02 0.04 0.06 0.08 0.09 0.10 0.10 0.10 0.08 0.04 0.01
0.00 0.00 0.01 0.01 0.01 0.01 0.01 0.01 0.02 0.04 0.05 0.02 0.01 0.00 0.00 0.00 0.00 0.00 0.00 0.00 0.00 0.00 0.00 0.00 0.00 0.00 0.00 0.00 0.00 0.00 0.00 0.00 0.00 0.01 0.02 0.05 0.10 0.13 0.14 0.16 0.16 0.13 0.08 0.03
0.00 0.00 0.00 0.00 0.01 0.01 0.00 0.00 0.00 0.00 0.00 0.00 0.00 0.00 0.00 0.00 0.00 0.00 0.00 0.00 0.00 0.00 0.00 0.00 0.00 0.00 0.00 0.00 0.00 0.00 0.00 0.00 0.00 0.00 0.01 0.04 0.10 0.15 0.19 0.20 0.21 0.20 0.15 0.07
0.00 0.00 0.00 0.00 0.01 0.00 0.00 0.00 0.00 0.00 0.00 0.00 0.00 0.00 0.00 0.00 0.00 0.00 0.00 0.00 0.00 0.00 0.00 0.00 0.00 0.00 0.00 0.00 0.00 0.00 0.00 0.00 0.00 0.00 0.01 0.04 0.10 0.16 0.23 0.28 0.31 0.32 0.26 0.14
0.00 0.00 0.00 0.00 0.00 0.00 0.00 0.00 0.00 0.00 0.00 0.00 0.00 0.00 0.00 0.00 0.00 0.00 0.00 0.00 0.00 0.00 0.00 0.00 0.00 0.00 0.00 0.00 0.00 0.00 0.00 0.00 0.01 0.01 0.01 0.04 0.09 0.14 0.21 0.30 0.38 0.44 0.40 0.23
0.00 0.00 0.00 0.00 0.00 0.00 0.00 0.00 0.00 0.00 0.00 0.00 0.00 0.00 0.00 0.00 0.00 0.00 0.00 0.00 0.00 0.00 0.00 0.00 0.00 0.00 0.00 0.00 0.00 0.00 0.00 0.00 0.00 0.01 0.02 0.03 0.07 0.13 0.20 0.27 0.35 0.43 0.43 0.30
0.00 0.00 0.00 0.00 0.00 0.00 0.00 0.00 0.00 0.00 0.00 0.00 0.00 0.00 0.00 0.00 0.00 0.00 0.00 0.00 0.00 0.00 0.00 0.00 0.00 0.00 0.00 0.00 0.00 0.00 0.00 0.00 0.00 0.01 0.01 0.03 0.05 0.10 0.18 0.26 0.31 0.36 0.40 0.35
MSLP
1012.45 1013.00 1013.37 1013.57 1013.63 1013.62 1013.57 1013.53 1013.51 1013.48 1013.42 1013.29 1013.09 1012.82 1012.48 1012.14 1011.82 1011.57 1011.41 1011.35 1011.36 1011.40 1011.43 1011.41 1011.33 1011.19 1011.02 1010.85 1010.74 1010.72 1010.81 1011.01 1011.29 1011.61 1011.91 1012.14 1012.27 1012.29 1012.19 1012.00 1011.76 1011.50 1011.26 1011.07
1012.69 1013.10 1013.35 1013.46 1013.50 1013.53 1013.59 1013.71 1013.87 1014.03 1014.13 1014.13 1013.99 1013.70 1013.30 1012.84 1012.38 1011.98 1011.69 1011.52 1011.46 1011.45 1011.47 1011.44 1011.35 1011.19 1010.99 1010.79 1010.64 1010.58 1010.64 1010.83 1011.13 1011.47 1011.81 1012.09 1012.26 1012.29 1012.19 1011.97 1011.68 1011.37 1011.06 1010.79
1012.74 1013.01 1013.15 1013.21 1013.25 1013.36 1013.56 1013.87 1014.23 1014.58 1014.84 1014.93 1014.82 1014.49 1013.99 1013.38 1012.76 1012.20 1011.77 1011.49 1011.36 1011.32 1011.32 1011.31 1011.24 1011.10 1010.90 1010.69 1010.52 1010.44 1010.49 1010.68 1010.98 1011.35 1011.72 1012.03 1012.24 1012.29 1012.20 1011.98 1011.67 1011.31 1010.94 1010.61
1012.68 1012.82 1012.87 1012.89 1012.98 1013.20 1013.56 1014.06 1014.62 1015.15 1015.54 1015.71 1015.60 1015.21 1014.59 1013.83 1013.03 1012.30 1011.73 1011.33 1011.12 1011.05 1011.06 1011.07 1011.03 1010.92 1010.75 1010.55 1010.38 1010.30 1010.34 1010.52 1010.83 1011.21 1011.60 1011.95 1012.18 1012.28 1012.21 1011.99 1011.67 1011.29 1010.88 1010.49
1012.62 1012.64 1012.61 1012.64 1012.79 1013.12 1013.65 1014.33 1015.08 1015.76 1016.26 1016.47 1016.35 1015.89 1015.15 1014.23 1013.27 1012.38 1011.67 1011.17 1010.89 1010.78 1010.78 1010.81 1010.80 1010.73 1010.59 1010.42 1010.26 1010.17 1010.20 1010.37 1010.66 1011.04 1011.45 1011.81 1012.08 1012.20 1012.16 1011.97 1011.67 1011.27 1010.85 1010.41
1012.67 1012.58 1012.50 1012.53 1012.75 1013.19 1013.87 1014.71 1015.60 1016.40 1016.97 1017.22 1017.07 1016.55 1015.71 1014.67 1013.58 1012.56 1011.73 1011.13 1010.78 1010.64 1010.62 1010.65 1010.67 1010.61 1010.49 1010.33 1010.17 1010.07 1010.08 1010.23 1010.49 1010.85 1011.24 1011.61 1011.89 1012.04 1012.04 1011.89 1011.61 1011.23 1010.80 1010.34
1012.87 1012.70 1012.59 1012.63 1012.90 1013.43 1014.21 1015.16 1016.15 1017.03 1017.66 1017.92 1017.77 1017.20 1016.31 1015.19 1014.02 1012.92 1012.01 1011.34 1010.93 1010.74 1010.69 1010.70 1010.70 1010.65 1010.52 1010.35 1010.17 1010.04 1010.02 1010.11 1010.33 1010.64 1011.00 1011.35 1011.63 1011.80 1011.83 1011.71 1011.47 1011.13 1010.71 1010.25
1013.23 1013.01 1012.87 1012.92 1013.22 1013.81 1014.65 1015.65 1016.69 1017.60 1018.25 1018.53 1018.39 1017.83 1016.93 1015.81 1014.63 1013.51 1012.57 1011.86 1011.40 1011.16 1011.06 1011.02 1010.98 1010.88 1010.72 1010.51 1010.29 1010.11 1010.02 1010.05 1010.20 1010.44 1010.74 1011.05 1011.31 1011.47 1011.52 1011.44 1011.24 1010.94 1010.56 1010.11
1013.68 1013.44 1013.30 1013.35 1013.66 1014.26 1015.10 1016.10 1017.13 1018.04 1018.70 1019.00 1018.89 1018.38 1017.55 1016.50 1015.38 1014.31 1013.39 1012.68 1012.20 1011.90 1011.74 1011.63 1011.51 1011.34 1011.11 1010.83 1010.55 1010.30 1010.13 1010.07 1010.12 1010.27 1010.49 1010.73 1010.94 1011.09 1011.14 1011.09 1010.93 1010.67 1010.33 1009.92
1014.13 1013.90 1013.77 1013.83 1014.13 1014.70 1015.49 1016.45 1017.43 1018.31 1018.95 1019.28 1019.23 1018.82 1018.12 1017.20 1016.21 1015.25 1014.41 1013.74 1013.24 1012.90 1012.66 1012.47 1012.25 1011.99 1011.67 1011.30 1010.93 1010.59 1010.33 1010.17 1010.12 1010.16 1010.27 1010.41 1010.55 1010.66 1010.70 1010.66 1010.53 1010.33 1010.04 1009.68
1014.48 1014.29 1014.19 1014.26 1014.54 1015.06 1015.78 1016.65 1017.55 1018.37 1019.00 1019.35 1019.39 1019.12 1018.58 1017.85 1017.04 1016.24 1015.51 1014.90 1014.42 1014.04 1013.73 1013.43 1013.11 1012.74 1012.32 1011.87 1011.40 1010.98 1010.62 1010.35 1010.18 1010.10 1010.09 1010.12 1010.17 1010.21 1010.22 1010.18 1010.08 1009.93 1009.71 1009.41
1014.68 1014.56 1014.51 1014.60 1014.86 1015.32 1015.96 1016.73 1017.54 1018.29 1018.89 1019.27 1019.40 1019.27 1018.92 1018.40 1017.78 1017.15 1016.55 1016.02 1015.56 1015.15 1014.77 1014.38 1013.96 1013.49 1012.98 1012.44 1011.90 1011.39 1010.94 1010.57 1010.29 1010.08 1009.94 1009.85 1009.80 1009.76 1009.72 1009.67 1009.60 1009.49 1009.34 1009.13
1014.73 1014.71 1014.73 1014.84 1015.10 1015.52 1016.08 1016.75 1017.46 1018.14 1018.71 1019.11 1019.31 1019.31 1019.13 1018.80 1018.38 1017.91 1017.43 1016.97 1016.53 1016.10 1015.66 1015.19 1014.68 1014.13 1013.55 1012.94 1012.34 1011.77 1011.25 1010.79 1010.39 1010.07 1009.80 1009.59 1009.42 1009.30 1009.20 1009.14 1009.08 1009.03 1008.96 1008.84
1014.73 1014.80 1014.89 1015.06 1015.33 1015.71 1016.21 1016.80 1017.42 1018.02 1018.54 1018.94 1019.20 1019.30 1019.24 1019.06 1018.78 1018.44 1018.06 1017.65 1017.22 1016.76 1016.27 1015.74 1015.17 1014.57 1013.94 1013.29 1012.66 1012.05 1011.48 1010.95 1010.46 1010.03 1009.65 1009.31 1009.04 1008.83 1008.68 1008.59 1008.55 1008.54 1008.55 1008.54
1014.77 1014.93 1015.10 1015.33 1015.62 1015.99 1016.45 1016.96 1017.50 1018.02 1018.49 1018.87 1019.13 1019.27 1019.29 1019.19 1019.00 1018.73 1018.40 1018.01 1017.58 1017.09 1016.56 1015.99 1015.38 1014.75 1014.10 1013.45 1012.81 1012.18 1011.58 1011.00 1010.45 1009.93 1009.45 1009.01 1008.63 1008.34 1008.13 1008.01 1007.98 1008.02 1008.10 1008.19
1014.97 1015.21 1015.45 1015.73 1016.05 1016.43 1016.85 1017.31 1017.77 1018.21 1018.61 1018.92 1019.15 1019.27 1019.29 1019.21 1019.04 1018.78 1018.45 1018.05 1017.59 1017.08 1016.52 1015.92 1015.30 1014.66 1014.02 1013.38 1012.76 1012.15 1011.54 1010.94 1010.34 1009.75 1009.19 1008.66 1008.20 1007.83 1007.56 1007.41 1007.38 1007.46 1007.60 1007.77
1015.43 1015.71 1016.00 1016.33 1016.67 1017.05 1017.45 1017.85 1018.24 1018.59 1018.88 1019.11 1019.25 1019.30 1019.27 1019.14 1018.92 1018.62 1018.25 1017.81 1017.31 1016.76 1016.17 1015.56 1014.94 1014.32 1013.71 1013.11 1012.52 1011.94 1011.35 1010.74 1010.12 1009.49 1008.87 1008.27 1007.74 1007.30 1006.98 1006.80 1006.76 1006.84 1007.02 1007.27
1016.16 1016.46 1016.78 1017.11 1017.47 1017.83 1018.19 1018.53 1018.84 1019.09 1019.27 1019.38 1019.40 1019.34 1019.19 1018.96 1018.65 1018.28 1017.83 1017.33 1016.78 1016.19 1015.58 1014.97 1014.36 1013.77 1013.20 1012.65 1012.11 1011.57 1011.01 1010.42 1009.80 1009.16 1008.50 1007.86 1007.28 1006.78 1006.41 1006.19 1006.12 1006.19 1006.38 1006.66
1017.11 1017.40 1017.71 1018.04 1018.37 1018.70 1019.00 1019.26 1019.47 1019.60 1019.66 1019.63 1019.51 1019.31 1019.03 1018.67 1018.25 1017.77 1017.24 1016.67 1016.07 1015.45 1014.82 1014.21 1013.62 1013.06 1012.53 1012.03 1011.55 1011.06 1010.54 1009.99 1009.39 1008.75 1008.09 1007.44 1006.82 1006.29 1005.87 1005.60 1005.49 1005.52 1005.69 1005.97
1018.18 1018.44 1018.71 1018.99 1019.27 1019.53 1019.75 1019.92 1020.01 1020.02 1019.93 1019.76 1019.50 1019.15 1018.74 1018.26 1017.72 1017.14 1016.53 1015.89 1015.24 1014.59 1013.95 1013.34 1012.76 1012.23 1011.74 1011.29 1010.85 1010.41 1009.95 1009.44 1008.89 1008.29 1007.65 1007.01 1006.39 1005.83 1005.38 1005.06 1004.89 1004.87 1004.99 1005.24
1019.24 1019.45 1019.66 1019.87 1020.06 1020.22 1020.34 1020.39 1020.35 1020.23 1020.00 1019.69 1019.29 1018.82 1018.28 1017.69 1017.06 1016.40 1015.71 1015.02 1014.33 1013.65 1013.00 1012.38 1011.82 1011.30 1010.84 1010.42 1010.02 1009.63 1009.22 1008.78 1008.29 1007.75 1007.17 1006.57 1005.97 1005.42 1004.94 1004.58 1004.35 1004.27 1004.32 1004.51
1020.18 1020.34 1020.47 1020.58 1020.66 1020.70 1020.69 1020.60 1020.43 1020.17 1019.82 1019.38 1018.87 1018.29 1017.65 1016.98 1016.27 1015.55 1014.82 1014.08 1013.36 1012.65 1011.98 1011.35 1010.78 1010.26 1009.81 1009.41 1009.05 1008.70 1008.36 1007.99 1007.58 1007.13 1006.62 1006.09 1005.54 1005.02 1004.55 1004.16 1003.88 1003.73 1003.71 1003.84
1020.93 1021.02 1021.07 1021.07 1021.03 1020.94 1020.78 1020.56 1020.25 1019.86 1019.39 1018.84 1018.24 1017.57 1016.87 1016.14 1015.39 1014.63 1013.86 1013.09 1012.34 1011.60 1010.90 1010.25 1009.65 1009.12 1008.65 1008.26 1007.92 1007.62 1007.34 1007.05 1006.73 1006.38 1005.98 1005.54 1005.08 1004.60 1004.15 1003.76 1003.45 1003.25 1003.17 1003.23
1021.46 1021.49 1021.45 1021.34 1021.17 1020.94 1020.64 1020.28 1019.84 1019.33 1018.76 1018.13 1017.45 1016.73 1015.99 1015.22 1014.44 1013.65 1012.86 1012.06 1011.27 1010.50 1009.76 1009.06 1008.42 1007.86 1007.37 1006.97 1006.64 1006.38 1006.16 1005.95 1005.74 1005.50 1005.22 1004.89 1004.52 1004.12 1003.72 1003.35 1003.03 1002.80 1002.69 1002.71
1021.77 1021.75 1021.62 1021.41 1021.11 1020.75 1020.32 1019.83 1019.28 1018.67 1018.01 1017.32 1016.59 1015.83 1015.06 1014.27 1013.47 1012.66 1011.83 1011.00 1010.17 1009.35 1008.55 1007.80 1007.11 1006.50 1005.99 1005.57 1005.25 1005.02 1004.86 1004.73 1004.62 1004.49 1004.33 1004.12 1003.86 1003.54 1003.21 1002.87 1002.58 1002.35 1002.22 1002.22
1021.92 1021.83 1021.63 1021.32 1020.92 1020.44 1019.90 1019.30 1018.65 1017.97 1017.24 1016.50 1015.73 1014.95 1014.15 1013.34 1012.52 1011.67 1010.81 1009.94 1009.05 1008.17 1007.31 1006.50 1005.75 1005.10 1004.55 1004.12 1003.81 1003.60 1003.49 1003.44 1003.42 1003.39 1003.33 1003.23 1003.06 1002.84 1002.58 1002.30 1002.04 1001.83 1001.72 1001.73
Thickness
5753 5739 5733 5741 5746 5750 5748 5744 5742 5754 5769 5763 5758 5760 5767 5775 5777 5775 5774 5772 5770 5770 5772 5774 5772 5770 5767 5763 5760 5757 5754 5752 5747 5741 5737 5733 5731 5731 5729 5728 5726 5724 5722 5721
5735 5733 5748 5754 5753 5749 5744 5738 5740 5750 5761 5757 5751 5752 5759 5764 5766 5769 5769 5765 5763 5762 5763 5764 5764 5762 5759 5757 5754 5752 5749 5745 5740 5735 5731 5728 5726 5723 5721 5719 5717 5716 5715 5714
5734 5744 5760 5757 5752 5745 5742 5739 5740 5741 5746 5747 5744 5735 5743 5753 5758 5761 5762 5761 5758 5757 5756 5756 5756 5755 5753 5751 5750 5747 5743 5739 5734 5730 5726 5722 5718 5715 5712 5710 5708 5707 5706 5706
5740 5752 5757 5753 5749 5746 5733 5748 5745 5740 5728 5717 5726 5705 5728 5736 5741 5746 5749 5751 5752 5753 5753 5752 5751 5750 5750 5749 5746 5742 5738 5734 5730 5726 5721 5715 5710 5705 5704 5702 5700 5698 5697 5697
5738 5751 5751 5746 5750 5751 5743 5747 5737 5729 5721 5708 5710 5700 5710 5728 5731 5737 5742 5745 5747 5749 5750 5749 5749 5749 5748 5745 5740 5737 5733 5729 5726 5721 5717 5711 5706 5702 5700 5697 5693 5691 5690 5689
5743 5755 5755 5752 5756 5754 5748 5732 5718 5705 5696 5688 5701 5694 5696 5712 5726 5734 5739 5742 5745 5746 5746 5746 5747 5745 5742 5738 5734 5731 5728 5724 5721 5717 5713 5708 5703 5699 5695 5692 5688 5686 5683 5682
5729 5741 5752 5757 5745 5743 5733 5707 5681 5678 5669 5676 5694 5690 5694 5723 5732 5734 5737 5740 5742 5741 5739 5738 5738 5736 5734 5732 5729 5726 5723 5719 5716 5712 5708 5704 5700 5695 5690 5687 5683 5680 5677 5675
5712 5710 5739 5749 5742 5730 5728 5708 5680 5669 5663 5671 5686 5687 5707 5728 5733 5733 5733 5732 5730 5728 5727 5726 5727 5726 5725 5725 5723 5720 5717 5713 5710 5706 5702 5698 5694 5689 5685 5681 5678 5674 5671 5669
5711 5712 5740 5745 5745 5738 5718 5707 5703 5679 5673 5665 5674 5691 5709 5721 5719 5718 5716 5714 5711 5711 5712 5713 5714 5715 5714 5714 5712 5710 5707 5704 5701 5698 5695 5691 5687 5684 5680 5676 5673 5670 5667 5664
5726 5713 5727 5734 5740 5735 5726 5705 5686 5674 5661 5656 5669 5677 5673 5684 5688 5690 5690 5690 5690 5693 5695 5697 5698 5699 5699 5698 5697 5696 5694 5692 5691 5689 5686 5684 5680 5677 5674 5670 5667 5665 5662 5659
5730 5708 5711 5716 5715 5711 5714 5702 5682 5668 5664 5653 5650 5660 5670 5667 5671 5672 5673 5674 5675 5677 5678 5680 5681 5682 5684 5685 5684 5682 5681 5679 5678 5678 5677 5675 5673 5670 5667 5664 5662 5659 5657 5654
5718 5700 5693 5703 5716 5717 5714 5705 5685 5671 5666 5654 5648 5648 5666 5663 5662 5662 5661 5663 5663 5663 5663 5664 5665 5667 5669 5668 5668 5667 5666 5666 5666 5667 5667 5667 5665 5662 5660 5658 5657 5654 5652 5649
5715 5699 5684 5685 5694 5706 5706 5701 5690 5673 5659 5647 5642 5646 5654 5652 5650 5649 5647 5647 5648 5649 5650 5650 5651 5651 5650 5650 5651 5651 5652 5653 5654 5656 5657 5658 5658 5656 5655 5653 5651 5649 5647 5644
5723 5701 5689 5683 5685 5695 5694 5693 5687 5666 5653 5648 5651 5647 5639 5637 5634 5633 5633 5633 5634 5635 5635 5635 5634 5633 5632 5633 5634 5636 5637 5639 5641 5643 5646 5649 5651 5651 5651 5649 5646 5643 5641 5639
5721 5703 5699 5696 5698 5696 5690 5684 5679 5670 5660 5650 5646 5636 5624 5624 5622 5621 5622 5622 5623 5623 5621 5620 5618 5617 5617 5618 5620 5621 5623 5625 5626 5628 5632 5638 5642 5644 5644 5643 5641 5638 5636 5634
5711 5703 5697 5694 5698 5692 5680 5673 5667 5654 5648 5643 5634 5622 5617 5617 5616 5613 5611 5610 5609 5608 5606 5604 5603 5602 5602 5603 5604 5606 5607 5609 5611 5613 5617 5623 5628 5633 5636 5636 5635 5632 5630 5628
5697 5691 5682 5675 5682 5683 5661 5651 5649 5637 5630 5625 5617 5608 5608 5606 5603 5599 5597 5595 5594 5593 5591 5589 5587 5585 5585 5585 5586 5587 5590 5592 5594 5596 5601 5605 5611 5617 5623 5626 5625 5624 5623 5621
5688 5679 5667 5663 5671 5658 5640 5643 5638 5626 5617 5613 5607 5602 5598 5594 5593 5590 5585 5582 5581 5579 5576 5572 5570 5568 5567 5566 5566 5567 5569 5571 5573 5577 5581 5586 5591 5599 5606 5611 5614 5616 5615 5613
5686 5675 5659 5650 5651 5643 5636 5634 5627 5618 5609 5601 5596 5594 5591 5587 5582 5580 5576 5571 5564 5558 5553 5550 5547 5546 5545 5544 5543 5543 5546 5547 5549 5553 5558 5563 5569 5577 5585 5594 5601 5604 5605 5605
5676 5668 5654 5647 5645 5635 5618 5620 5621 5612 5600 5591 5585 5579 5575 5568 5558 5563 5559 5551 5544 5538 5533 5529 5527 5525 5523 5522 5519 5518 5521 5522 5525 5530 5535 5540 5545 5553 5563 5574 5585 5592 5595 5597
5659 5650 5643 5637 5632 5618 5606 5610 5610 5588 5582 5580 5574 5566 5558 5547 5541 5542 5536 5528 5521 5516 5513 5509 5507 5507 5507 5505 5500 5500 5502 5504 5509 5514 5518 5522 5528 5534 5543 5555 5568 5580 5585 5588
5641 5635 5629 5623 5618 5608 5602 5598 5585 5576 5575 5567 5560 5550 5540 5533 5527 5521 5515 5509 5503 5498 5495 5492 5490 5494 5495 5492 5488 5489 5491 5497 5500 5503 5507 5511 5516 5521 5529 5537 5552 5565 5575 5580
5626 5619 5617 5609 5602 5596 5592 5585 5580 5572 5561 5553 5542 5533 5521 5513 5508 5504 5499 5495 5492 5490 5489 5488 5486 5488 5489 5487 5484 5484 5489 5492 5494 5497 5501 5505 5508 5512 5517 5524 5535 5550 5563 5573
5619 5613 5606 5599 5595 5590 5585 5578 5569 5558 5547 5537 5525 5514 5503 5496 5495 5493 5491 5489 5487 5487 5486 5486 5484 5485 5486 5485 5484 5484 5486 5487 5489 5491 5495 5498 5501 5505 5509 5515 5524 5536 5551 5565
5609 5603 5594 5588 5584 5580 5577 5568 5559 5547 5534 5522 5512 5501 5491 5487 5488 5487 5488 5489 5488 5488 5486 5484 5482 5482 5483 5481 5480 5481 5481 5481 5482 5485 5488 5491 5495 5498 5502 5507 5514 5526 5540 5555
5602 5595 5586 5579 5578 5567 5563 5557 5546 5532 5520 5508 5498 5495 5490 5485 5486 5487 5488 5488 5486 5485 5483 5481 5479 5477 5477 5475 5474 5474 5474 5474 5475 5477 5481 5484 5488 5492 5495 5499 5508 5521 5534 5548